152  
ASUS41 KOKX 181605  
RWROKX  
 
REGIONAL WEATHER ROUNDUP  
NATIONAL WEATHER SERVICE NEW YORK NY  
1200 PM EDT WED JUL 18 2018  
 
NOTE: "FAIR" INDICATES FEW OR NO CLOUDS BELOW 12,000 FEET WITH NO  
SIGNIFICANT WEATHER AND/OR S TO VISIBILITY
.  
 
NYZ071-072-176-178-NJZ106-104-181700-  
NEW YORK CITY METRO AREA  
 
CITY SKY/WX TMP DP RH WIND PRES REMARKS
 
CENTRAL PARK FAIR 80 60 50 VRB3 29.93S  
BRONX BOT GARD N/A 79 59 50 N5 29.91  
BRONX LEHMAN C N/A 79 61 53 N8 N/A  
LAGUARDIA ARPT FAIR 81 58 45 N16 29.89S  
QUEENS COLLEGE N/A N/A N/A N/A N10 N/A  
KENNEDY INTL FAIR 82 61 48 N15 29.89F  
BREEZY POINT N/A 79 N/A N/A N12G18 N/A  
BROOKLYN COLL N/A 81 57 44 N10 N/A  
STATEN ISLAND N/A 79 59 50 N6 N/A  
NEWARK/LIBERTY FAIR 82 59 45 N10 29.89F  
TETERBORO FAIR 82 59 45 NE9G16 29.89S  

 
 
NYZ177-179-078>081-181700-  
LONG ISLAND NEW YORK  
 
CITY SKY/WX TMP DP RH WIND PRES REMARKS
 
JONES BEACH N/A 77 N/A N/A N14 N/A  
WANTAGH N/A N/A N/A N/A N10 N/A  
HEMPSTEAD N/A 79 63 57 NW9 29.91  
MATINECOCK PT N/A 77 N/A N/A N6 N/A  
FARMINGDALE FAIR 80 60 50 N15G21 29.88F  
MACARTHUR/ISP FAIR 80 61 52 N14 29.88S  
STONY BROOK N/A 75 64 69 N5 N/A  
SHIRLEY FAIR 81 65 58 N8G16 29.88S  
MT SINAI HARB N/A 79 N/A N/A N5 N/A  
WESTHAMPTON FAIR 81 61 50 N10 29.88F  
EAST HAMPTON FAIR 79 60 52 N9G18 29.86S  
SOUTHOLD N/A 77 63 61 N9 N/A  
MONTAUK N/A 77 64 64 N6 29.86F  

 
 
NYZ052-065-067-181700-  
HUDSON VALLEY  
 
CITY SKY/WX TMP DP RH WIND PRES REMARKS
 
WHITE PLAINS FAIR 79 57 46 N15 29.91R  
LARCHMONT HARB N/A 77 N/A N/A N14 N/A  
CROTON ON HUDS N/A 81 N/A N/A N7G13 N/A  
SOMERS N/A 77 63 61 NW5 N/A  
BREWSTER N/A 73 59 60 NW12 N/A  
NEWBURGH MOSUNNY 77 61 57 N7 29.95S  
MONTGOMERY FAIR 78 62 57 CALM 29.93F  
OTISVILLE N/A 77 55 47 N7 N/A  
WARWICK N/A 77 63 61 N6 N/A  
SUFFERN N/A 77 57 50 N8 N/A  
POUGHKEEPSIE FAIR 77 59 53 NW10 29.92F  
ALBANY FAIR 74 56 53 N9 29.96F  

 
 
NJZ001-105-106-008-010-013-015-019>022-104-181700-  
NEW JERSEY  
 
CITY SKY/WX TMP DP RH WIND PRES REMARKS
 
NEWARK/LIBERTY FAIR 82 59 45 N10 29.89F  
TETERBORO FAIR 82 59 45 NE9G16 29.89S  
CALDWELL FAIR 80 60 50 N9 29.92S  
SOMERVILLE FAIR 82 59 45 N8G20 29.90  
LINDEN NOT AVBL  
PERTH AMBOY N/A 79 N/A N/A N13G18 N/A  
SUSSEX PTSUNNY 78 61 55 N9 29.94S  
ANDOVER N/A 79 62 56 NW7 29.95S  
TRENTON FAIR 81 63 54 N9 29.92S  
MILLVILLE FAIR 82 62 50 NW7 29.91S  
ATLANTIC CITY FAIR 83 63 50 N8G18 29.90S  
WRIGHTSTOWN FAIR 81 63 53 N9 29.89S  
TOMS RIVER PTSUNNY 80 64 58 N12G17 29.91S  
BELMAR FAIR 80 62 54 N12G17 29.91F  

 
 
PAZ047>061-062-071-181700-  
EASTERN PENNSYLVANIA  
 
CITY SKY/WX TMP DP RH WIND PRES REMARKS
 
PHILADELPHIA FAIR 81 60 48 N8G17 29.92F  
ALLENTOWN FAIR 82 58 43 N12G20 29.95S  
SCRANTON PTSUNNY 74 58 57 NW14 30.00S  

 
 
CTZ002-004>006-009-010-012-RIZ004-006-007-MAZ004-011-015-181700-  
SOUTHERN NEW ENGLAND  
 
IN CT  
 
CITY SKY/WX TMP DP RH WIND PRES REMARKS
 
BRADLEY INTL FAIR 79 61 53 NE12G20 29.89F  
HARTFORD FAIR 78 61 55 VRB7G17 29.88F  
DANBURY FAIR 77 59 53 NW12G18 29.93S  
WTRBURY/OXFORD FAIR 77 60 55 NW9G18 29.92S  
NORWALK HARBOR N/A 77 N/A N/A N13 N/A  
BRIDGEPORT FAIR 83 59 44 N9G22 29.87S  
MERIDEN FAIR 80 61 52 N6 29.88F  
NEW HAVEN FAIR 83 62 49 N12G21 29.87S  
CHESTER FAIR 81 59 47 NW13 29.88F  
GROTON FAIR 81 59 47 N14 29.85S  
WILLIMANTIC FAIR 80 60 50 N10 29.88F  
 
IN RI  
 
CITY SKY/WX TMP DP RH WIND PRES REMARKS
 
PROVIDENCE FAIR 81 56 42 N16 29.86F  
BLOCK ISLAND FAIR 78 65 63 NE12G18 29.85  
WESTERLY FAIR 83 60 45 N13 29.86S  
 
IN MA  
 
CITY SKY/WX TMP DP RH WIND PRES REMARKS
 
BOSTON FAIR 80 56 43 NW15G22 29.85F  
WORCESTER SUNNY 73 55 53 NW12 29.91S  
WESTFIELD FAIR 78 62 57 NE8 29.89F  
PROVINCETOWN FAIR 72 67 84 N12 29.86S  
NANTUCKET CLOUDY 74 67 78 N14 29.83S  

 
 
ANZ330-335-338-340-345-350-353-355-181700-  
COASTAL MARINE OBSERVATIONS  
 
 
STATION/POSITION TIME SKY/WX TEMP WIND PRES VSBY WAVE
 
AIR SEA DIR/SP/G HT/PER  
(UTC) (F) (DEG/KT/KT) (MB) (MI) (FT/S)  
NY HARB ENTRANCE 1540 75 74 10/ 8/ 12 1011.7  
20 S FIRE ISLAND 1550 74 74 10/ 14/ 14 1011.5 3/ 4  
GREAT SOUTH BAY 1515 76 79 350/ 12/ 19 N/A  
23 SSW MONTAUK P 1550 72 72 360/ 10/ 12 1010.9 3/ 8  
15 E BARNEGAT LI 1530 75 N/A 4/ 4  
HUDSON CANYON 1550 73 360/ 14/ 17 1009.6 4/ 7  
KINGS POINT 1536 76 70 60/ 7/ 9 1013.4  
EXECUTION ROCKS NOT AVBL  
WESTERN LI SOUND 1450 75 350/ 8/ 12 N/A 0  
CENTRAL LI SOUND NOT AVBL  
ROBBINS REEF 1548 77 360/ 13/ 14 1013.1  

 
 
>>>>>>>>>>>>>>>>>>>>>>>>>>>> KEY <<<<<<<<<<<<<<<<<<<<<<<<<<<  
> <  
> SKY/WX - SKY CONDITION/PRESENT WEATHER <  
> TMP - TEMPERATURE IN FAHRENHEIT <  
> DP - DEW POINT IN FAHRENHEIT <  
> RH - RELATIVE HUMIDITY IN PERCENT <  
> WIND - DIRECTION (FROM) AND SPEED IN MPH <  
> PRES - MEAN SEA LEVEL PRESSURE (INCHES OF HG) <  
> WCI - WIND CHILL INDEX <  
> VSB - VISIBILITY IN MILES <  
> HX - HEAT INDEX <  
> TC - TEMPERATURE IN CELSIUS <  
> VRB - VARIBALE WIND DIRECTION <  
> <  
>>>>>>>>>>>>>>>>>>>>>>>>>>>> KEY <<<<<<<<<<<<<<<<<<<<<<<<<<<  
 
 
CLICK HERE TO GO TO PREVIOUS BULLETINS.

The Nexlab NY Page
The Nexlab NJ Page
The Nexlab CT Page Main Text Page